EW6920 Weather Reports


time (UTC)temp
C
wind
direction
speed
KPH
gust
KPH
rain 1hr
cm
rain 24hr
cm
rain mn
cm
humidity
%
barometer
mb
20260503050045 9 209 9.7 14.5 0.00 0.00 0.00 62 1006.6
20260503044607 9 215 8.0 14.5 0.00 0.00 0.00 64 1006.7
20260503043040 9 221 6.4 11.3 0.00 0.00 0.00 65 1006.8
20260503041553 9 202 6.4 11.3 0.00 0.00 0.00 66 1007.0
20260503040048 8 186 4.8 9.7 0.00 0.00 0.00 69 1007.0
20260503034542 8 209 3.2 6.4 0.00 0.00 0.00 70 1007.2
20260503033041 7 209 3.2 6.4 0.00 0.00 0.00 74 1007.4
20260503031543 7 207 3.2 6.4 0.00 0.00 0.00 67 1007.7
20260503030050 7 205 4.8 11.3 0.00 0.00 0.00 68 1008.0
20260503024551 7 144 1.6 8.0 0.00 0.00 0.00 64 1008.1
20260503023047 7 180 0.0 6.4 0.00 0.00 0.00 60 1008.3
20260503021547 7 0 0.0 1.6 0.00 0.00 0.00 58 1008.6
20260503020046 8 0 0.0 0.0 0.00 0.00 0.00 58 1008.5
20260503014553 9 0 0.0 0.0 0.00 0.00 0.00 58 1008.6
20260503013048 10 0 0.0 6.4 0.00 0.00 0.00 56 1008.5
20260503011545 11 218 3.2 6.4 0.00 0.00 0.00 57 1008.7
20260503010042 11 264 6.4 14.5 0.00 0.00 0.00 54 1008.8
20260503004547 11 250 8.0 16.1 0.00 0.00 0.00 49 1008.8
20260503003050 11 256 9.7 19.3 0.00 0.00 0.00 52 1008.9
20260503001600 12 265 11.3 22.5 0.00 0.00 0.00 47 1008.9
20260503000106 12 261 8.0 17.7 0.00 0.00 0.00 47 1008.9
20260502234559 12 198 9.7 17.7 0.00 0.00 0.00 48 1008.9
20260502233047 12 237 6.4 16.1 0.00 0.00 0.00 46 1009.0
20260502231545 12 224 11.3 17.7 0.00 0.00 0.00 44 1008.9
20260502230045 12 0 0.0 9.7 0.00 0.00 0.00 38 1009.1
20260502224543 12 269 4.8 19.3 0.00 0.00 0.00 46 1009.3
20260502223047 13 319 9.7 17.7 0.00 0.00 0.00 38 1009.5
20260502221547 13 302 9.7 20.9 0.00 0.00 0.00 39 1009.5
20260502220050 13 269 12.9 22.5 0.00 0.00 0.00 42 1009.6
20260502214606 13 296 12.9 24.1 0.00 0.00 0.00 39 1009.7
20260502213103 14 215 8.0 19.3 0.00 0.00 0.00 32 1009.9
20260502211540 14 306 6.4 11.3 0.00 0.00 0.00 29 1010.0
20260502210048 13 0 1.6 17.7 0.00 0.00 0.00 30 1010.1
20260502204546 13 315 8.0 14.5 0.00 0.00 0.00 34 1010.2
20260502203108 13 281 8.0 16.1 0.00 0.00 0.00 37 1010.6
20260502201544 13 0 3.2 17.7 0.00 0.00 0.00 29 1010.7
20260502200047 13 278 9.7 27.4 0.00 0.00 0.00 37 1011.2
20260502194548 13 268 1.6 24.1 0.00 0.00 0.00 34 1011.4
20260502193048 13 247 9.7 17.7 0.00 0.00 0.00 42 1011.7
20260502191548 13 326 8.0 17.7 0.00 0.00 0.00 35 1011.9
20260502190045 13 286 11.3 17.7 0.00 0.00 0.00 40 1012.3
20260502184543 12 302 12.9 29.0 0.00 0.00 0.00 41 1012.5
20260502183048 12 227 14.5 22.5 0.00 0.00 0.00 43 1012.8
20260502181547 12 190 1.6 8.0 0.00 0.00 0.00 33 1012.9
20260502163059 10 0 4.8 14.5 0.00 0.00 0.00 37 1014.2
20260502161554 10 272 6.4 19.3 0.00 0.00 0.00 42 1014.3
20260502151544 8 226 8.0 14.5 0.00 0.00 0.00 48 1014.9
20260502123109 -3 0 0.0 0.0 0.00 0.00 0.00 93 1015.8
20260502121557 -3 0 0.0 0.0 0.00 0.00 0.00 92 1015.8
20260502114547 -4 0 0.0 0.0 0.00 0.00 0.00 92 1015.8
20260502113050 -5 0 0.0 0.0 0.00 0.00 0.00 91 1015.9
20260502111547 -5 0 0.0 0.0 0.00 0.00 0.00 91 1015.8
20260502110046 -5 0 0.0 0.0 0.00 0.00 0.00 91 1015.7
20260502104548 -5 0 0.0 0.0 0.00 0.00 0.00 91 1015.8
20260502103047 -5 0 0.0 0.0 0.00 0.00 0.00 91 1015.8
20260502101547 -5 0 0.0 0.0 0.00 0.00 0.00 91 1015.9
20260502070101 -3 0 0.0 0.0 0.00 0.00 0.00 87 1016.1
20260502064553 -3 0 0.0 0.0 0.00 0.00 0.00 87 1016.2
20260502063050 -3 0 0.0 0.0 0.00 0.00 0.00 86 1016.3
20260502061542 -3 0 0.0 0.0 0.00 0.00 0.00 86 1016.4
20260502060052 -2 0 0.0 0.0 0.00 0.00 0.00 85 1016.3
20260502054545 -2 0 0.0 0.0 0.00 0.00 0.00 85 1016.3
20260502053045 -2 0 0.0 0.0 0.00 0.00 0.00 84 1016.3
20260502051559 -2 0 0.0 0.0 0.00 0.00 0.00 84 1016.4